sat.trackr.live / text

‹ back to catalog

MEASAT-3A

NORAD 35362 · 2009-032A

PAYLOAD ACTIVE UNKNOWN

§ Identity

Operator
Country
MALA
Launch date
2009-06-21
Launch site
TYMSC
Launch vehicle
Mass (kg)
RCS (m²)
31.62

Purposes: comms

External: N2YO · Heavens-Above · Gunter

§ Orbital elements

Epoch: 2026-09-19T20:33:15.185664Z

Period
1,436.10 min
Inclination
0.0416°
Eccentricity
0.0001972
Mean motion
1.00271576 rev/d
Perigee alt
35,778.3 km
Apogee alt
35,795.0 km
Semi-major
42,164.8 km
B*
0.0000e+0
RAAN
348.0669°
Arg perigee
198.8350°
Mean anomaly
280.1768°
Rev number
898

§ Raw data

MEASAT-3A1 35362U 09032A   26262.85642576 -.00000115  00000+0  00000+0 0  99902 35362   0.0416 348.0669 0001972 198.8350 280.1768  1.00271576  8987

JSON: /api/v1/satellites/35362 · /tle

For live sub-satellite position, see the globe view (requires WebGL).

§ Visibility from observer

Set your observer location to see the next 7 days of passes ≥ 10°. The values pass through the URL so the page stays shareable.

No JS? Fill the form by hand. The geolocation button needs JavaScript.